EW0608 Weather Reports


Display with metric or nautical units.
time (UTC)temp
F
wind
direction
speed
MPH
gust
MPH
rain 1hr
in
rain 24hr
in
rain mn
in
humidity
%
barometer
mb
20260505054616 50 65 0.0 0.0 0.00 0.31 0.00 90 1009.1
20260505053101 50 65 0.0 0.0 0.00 0.31 0.00 89 1009.1
20260505051548 50 65 0.0 0.0 0.00 0.31 0.00 89 1009.1
20260505041559 52 65 0.0 1.0 0.00 0.31 0.00 86 1009.1
20260505041353 53 65 0.0 1.0 0.00 0.31 0.00 86 1009.5
20260505040905 53 65 0.0 0.0 0.00 0.31 0.00 85 1009.5
20260505040358 53 65 0.0 0.0 0.00 0.31 0.00 84 1009.5
20260505040008 53 65 0.0 0.0 0.00 0.31 0.00 84 1009.2
20260505035908 54 65 0.0 0.0 0.00 0.31 0.31 84 1009.5
20260505035359 54 65 0.0 1.0 0.00 0.31 0.31 83 1009.5
20260505034852 54 65 0.0 1.0 0.00 0.31 0.31 84 1009.5
20260505034546 53 65 0.0 1.0 0.00 0.31 0.31 84 1009.3
20260505034344 54 64 0.0 0.0 0.00 0.31 0.31 84 1009.6
20260505033837 54 64 0.0 0.0 0.00 0.31 0.31 83 1009.5
20260505033349 54 64 0.0 0.0 0.00 0.31 0.31 82 1009.5
20260505033143 54 64 0.0 0.0 0.00 0.31 0.31 82 1009.3
20260505032842 55 64 0.0 0.0 0.00 0.31 0.31 81 1009.5
20260505032415 55 64 0.0 0.0 0.00 0.31 0.31 81 1009.6
20260505031846 55 64 0.0 0.0 0.00 0.31 0.31 81 1009.6
20260505031610 55 64 0.0 0.0 0.00 0.31 0.31 81 1009.3
20260505031359 55 64 0.0 0.0 0.00 0.00 0.31 80 1009.4
20260505030909 56 64 0.0 0.0 0.00 0.31 0.31 80 1009.6
20260505030442 56 63 0.0 0.0 0.00 0.31 0.31 79 1009.6
20260505030047 55 64 0.0 0.0 0.00 0.31 0.31 79 1009.3
20260505025847 56 64 0.0 0.0 0.00 0.31 0.31 79 1009.6
20260505025340 56 64 0.0 0.0 0.00 0.31 0.31 79 1009.6
20260505024912 57 64 0.0 0.0 0.00 0.31 0.31 78 1009.6
20260505024545 56 64 0.0 0.0 0.00 0.31 0.31 77 1009.3
20260505024345 57 64 0.0 0.0 0.00 0.31 0.31 76 1009.6
20260505023838 57 64 0.0 0.0 0.00 0.31 0.31 77 1009.7
20260505023412 58 64 0.0 0.0 0.00 0.31 0.31 76 1009.8
20260505023047 57 64 0.0 0.0 0.00 0.31 0.31 74 1009.5
20260505022843 58 64 0.0 0.0 0.00 0.31 0.31 74 1009.8
20260505022416 58 64 0.0 0.0 0.00 0.31 0.31 73 1009.7
20260505021848 58 64 0.0 0.0 0.00 0.31 0.31 73 1009.7
20260505021542 58 64 0.0 0.0 0.00 0.31 0.31 73 1009.4
20260505021342 59 64 0.0 0.0 0.00 0.31 0.31 73 1009.7
20260505020855 59 64 0.0 0.0 0.00 0.31 0.31 73 1009.6
20260505020348 59 64 0.0 0.0 0.00 0.31 0.31 71 1009.6
20260505020037 59 64 0.0 0.0 0.00 0.31 0.31 70 1009.4
20260505015837 59 64 0.0 0.0 0.00 0.31 0.31 70 1009.6
20260505015350 60 64 0.0 0.0 0.00 0.31 0.31 69 1009.6
20260505014842 60 64 0.0 0.0 0.00 0.31 0.31 68 1009.5
20260505014604 60 64 0.0 0.0 0.00 0.31 0.31 68 1009.2
20260505014355 61 64 0.0 0.0 0.00 0.31 0.31 68 1009.4
20260505013847 61 64 0.0 0.0 0.00 0.31 0.31 68 1009.4
20260505013339 61 64 0.0 0.0 0.00 0.31 0.31 68 1009.3
20260505013033 61 64 0.0 0.0 0.00 0.31 0.31 69 1009.0
20260505012932 61 64 0.0 0.0 0.00 0.31 0.31 69 1009.2
20260505012341 62 64 0.0 0.0 0.00 0.31 0.31 69 1009.1
20260505011913 63 64 0.0 0.0 0.00 0.31 0.31 67 1009.1
20260505011608 62 64 0.0 0.0 0.00 0.31 0.31 66 1008.8
20260505011504 63 64 0.0 0.0 0.00 0.31 0.31 65 1009.0
20260505010848 63 64 0.0 0.0 0.00 0.31 0.31 61 1008.9
20260505010341 64 64 0.0 0.0 0.00 0.31 0.31 61 1008.8
20260505010051 64 64 0.0 0.0 0.00 0.31 0.31 60 1008.5
20260505005850 64 64 0.0 0.0 0.00 0.31 0.31 59 1008.7
20260505005343 65 64 0.0 0.0 0.00 0.31 0.31 61 1008.6
20260505004837 65 64 0.0 0.0 0.00 0.31 0.31 60 1008.5
20260505004555 65 64 0.0 0.0 0.00 0.31 0.31 60 1008.3
20260505004350 65 64 0.0 0.0 0.00 0.31 0.31 59 1008.4
20260505003923 66 64 0.0 1.0 0.00 0.31 0.31 59 1008.4
20260505003411 66 64 0.0 1.0 0.00 0.31 0.31 58 1008.4
20260505003001 66 63 0.0 0.0 0.00 0.31 0.31 57 1008.0
20260505002901 67 63 0.0 0.0 0.00 0.31 0.31 57 1008.3
20260505002354 67 63 0.0 1.0 0.00 0.31 0.31 59 1008.4
20260505001846 67 63 0.0 1.0 0.00 0.31 0.31 60 1008.3
20260505001540 67 63 0.0 1.0 0.00 0.31 0.31 56 1008.0
20260505001339 68 63 0.0 1.0 0.00 0.31 0.31 58 1008.2
20260505000849 68 63 0.0 1.0 0.00 0.31 0.31 53 1008.1
20260505000343 69 63 0.0 2.0 0.00 0.31 0.31 53 1008.1
20260505000018 69 63 0.0 2.0 0.00 0.31 0.31 52 1007.9
20260504235910 69 63 0.0 2.0 0.00 0.31 0.31 51 1008.1
20260504235341 70 63 0.0 2.0 0.00 0.31 0.31 48 1007.9
20260504234855 70 65 0.0 2.0 0.00 0.31 0.31 51 1007.9
20260504234549 71 65 0.0 4.0 0.00 0.31 0.31 49 1007.7
20260504234348 71 63 0.0 4.0 0.00 0.31 0.31 47 1007.9
20260504233841 72 153 1.0 3.0 0.00 0.31 0.31 48 1007.8
20260504233354 72 81 1.0 3.0 0.00 0.31 0.31 46 1007.8
20260504233027 72 138 0.0 3.0 0.00 0.31 0.31 45 1007.6
20260504232926 72 95 0.0 3.0 0.00 0.31 0.31 45 1007.8
20260504232434 72 71 0.0 3.0 0.00 0.31 0.31 45 1007.7
20260504231841 72 192 1.0 3.0 0.00 0.31 0.31 49 1007.7
20260504231555 72 94 0.0 3.0 0.00 0.31 0.31 49 1007.5
20260504231355 73 94 0.0 3.0 0.00 0.31 0.31 45 1007.7
20260504230907 73 136 1.0 3.0 0.00 0.31 0.31 43 1007.7
20260504230340 73 94 1.0 4.0 0.00 0.31 0.31 44 1007.7
20260504225849 74 94 0.0 4.0 0.00 0.34 0.31 42 1007.6
20260504225342 74 96 1.0 2.0 0.00 0.34 0.31 40 1007.6
20260504224855 74 96 1.0 2.0 0.00 0.34 0.31 42 1007.6
20260504224508 73 97 0.0 1.0 0.01 0.34 0.31 42 1007.5
20260504224406 74 97 0.0 2.0 0.01 0.34 0.31 46 1007.7
20260504223838 75 102 0.0 4.0 0.02 0.34 0.31 40 1007.7
20260504223351 75 216 2.0 4.0 0.02 0.34 0.31 39 1007.7
20260504223049 74 130 1.0 6.0 0.02 0.34 0.31 39 1007.5
20260504222849 75 190 2.0 6.0 0.02 0.34 0.31 39 1007.7
20260504222400 74 212 4.0 7.0 0.02 0.34 0.31 42 1007.6
20260504221852 75 86 1.0 7.0 0.02 0.34 0.31 39 1007.6
20260504221557 74 295 1.0 7.0 0.02 0.34 0.31 39 1007.5
20260504221346 75 99 2.0 7.0 0.02 0.34 0.31 39 1007.7
20260504220839 75 114 1.0 6.0 0.02 0.34 0.31 39 1007.6
20260504220353 75 124 1.0 6.0 0.02 0.34 0.31 39 1007.7
20260504220043 75 198 2.0 6.0 0.02 0.34 0.31 38 1007.6
20260504215843 75 257 2.0 6.0 0.02 0.35 0.31 38 1007.7
20260504215335 76 80 3.0 6.0 0.03 0.35 0.31 38 1007.6
20260504214909 76 86 2.0 8.0 0.03 0.35 0.31 38 1007.7
20260504214542 75 161 2.0 8.0 0.02 0.34 0.30 38 1007.6
20260504214342 76 144 3.0 8.0 0.02 0.34 0.30 38 1007.7
20260504213853 75 62 1.0 8.0 0.02 0.33 0.29 38 1007.7
20260504213346 76 360 2.0 9.0 0.02 0.33 0.29 37 1007.6
20260504213044 75 183 1.0 9.0 0.02 0.33 0.28 37 1007.5
20260504212839 76 63 3.0 9.0 0.02 0.33 0.29 37 1007.6
20260504212352 76 175 2.0 9.0 0.02 0.33 0.29 37 1007.5
20260504211905 76 161 3.0 7.0 0.02 0.33 0.29 36 1007.5
20260504211515 76 261 1.0 7.0 0.04 0.33 0.28 35 1007.4
20260504211414 76 220 1.0 9.0 0.04 0.33 0.29 36 1007.5
20260504210846 77 49 2.0 9.0 0.04 0.33 0.29 35 1007.5
20260504210400 78 123 3.0 9.0 0.04 0.33 0.29 34 1007.4
20260504210052 77 178 1.0 9.0 0.04 0.33 0.28 34 1007.4
20260504205848 78 49 1.0 9.0 0.05 0.37 0.29 35 1007.5
20260504205341 78 226 1.0 7.0 0.04 0.36 0.28 35 1007.4
20260504204835 77 174 3.0 8.0 0.04 0.36 0.28 35 1007.4
20260504204549 76 97 1.0 9.0 0.04 0.36 0.28 36 1007.3
20260504204449 76 263 2.0 9.0 0.04 0.36 0.28 35 1007.4
20260504203935 78 22 1.0 3.0 0.03 0.35 0.27 34 1007.4
20260504203343 76 36 1.0 6.0 0.03 0.35 0.27 35 1007.6
20260504203037 75 337 1.0 8.0 0.03 0.35 0.27 35 1007.6
20260504202837 76 75 2.0 8.0 0.03 0.35 0.27 35 1007.7
20260504202349 75 159 4.0 9.0 0.03 0.35 0.27 35 1007.7
20260504201843 75 207 2.0 9.0 0.03 0.35 0.27 35 1007.9
20260504201559 75 207 2.0 9.0 0.01 0.33 0.25 34 1007.7
20260504201354 76 159 2.0 9.0 0.01 0.33 0.25 34 1007.8
20260504200847 76 126 3.0 9.0 0.01 0.33 0.25 34 1007.8
20260504200342 76 157 1.0 10.0 0.01 0.33 0.25 35 1007.9
20260504200052 75 153 4.0 10.0 0.01 0.33 0.25 34 1007.9
20260504195850 76 186 2.0 5.0 0.00 0.34 0.24 35 1008.0
20260504195424 76 84 1.0 5.0 0.00 0.34 0.24 35 1008.0
20260504194910 77 86 1.0 8.0 0.00 0.34 0.24 35 1008.1
20260504194543 76 82 0.0 8.0 0.00 0.34 0.24 34 1008.1
20260504194341 76 70 1.0 8.0 0.00 0.34 0.24 34 1008.2
20260504193914 76 115 1.0 8.0 0.00 0.34 0.24 35 1008.3
20260504193405 76 217 2.0 8.0 0.00 0.34 0.24 34 1008.4
20260504193038 76 159 2.0 8.0 0.01 0.34 0.24 33 1008.4
20260504192837 77 69 2.0 9.0 0.01 0.34 0.24 34 1008.4
20260504192349 77 62 2.0 8.0 0.01 0.34 0.24 34 1008.5
20260504191843 77 5 2.0 8.0 0.01 0.34 0.24 35 1008.6
20260504191606 76 340 2.0 8.0 0.01 0.34 0.24 33 1008.7
20260504191355 77 153 4.0 8.0 0.01 0.34 0.24 34 1008.6
20260504190849 75 134 1.0 9.0 0.01 0.34 0.24 36 1008.8
20260504190403 74 120 4.0 8.0 0.01 0.34 0.24 35 1008.9
20260504190100 74 155 2.0 8.0 0.01 0.34 0.24 35 1009.0
20260504185852 75 75 2.0 9.0 0.01 0.34 0.24 34 1009.0
20260504185406 75 129 1.0 9.0 0.02 0.34 0.24 34 1009.0
20260504184836 75 74 2.0 5.0 0.02 0.34 0.24 35 1009.1
20260504184550 75 145 1.0 5.0 0.02 0.34 0.24 34 1009.2
20260504184349 75 163 2.0 5.0 0.02 0.34 0.24 34 1009.2
20260504183841 75 89 0.0 8.0 0.02 0.34 0.24 34 1009.1
20260504183353 76 156 5.0 9.0 0.04 0.34 0.24 32 1009.2
20260504183047 77 221 2.0 11.0 0.03 0.33 0.23 31 1009.2
20260504182846 78 140 5.0 11.0 0.03 0.33 0.23 31 1009.2
20260504182344 78 98 4.0 11.0 0.03 0.33 0.23 32 1009.3
20260504181837 77 135 2.0 8.0 0.07 0.33 0.23 33 1009.2
20260504181555 77 149 3.0 8.0 0.07 0.33 0.23 32 1009.3
20260504181350 78 201 4.0 9.0 0.07 0.33 0.23 32 1009.2
20260504180842 77 154 2.0 9.0 0.07 0.33 0.23 33 1009.4
20260504180355 77 309 5.0 9.0 0.09 0.33 0.23 32 1009.4
20260504180045 75 80 3.0 8.0 0.10 0.33 0.23 33 1009.5
20260504175844 76 355 4.0 8.0 0.14 0.33 0.23 33 1009.5
20260504175417 75 139 3.0 7.0 0.13 0.32 0.22 33 1009.6
20260504174846 76 134 2.0 8.0 0.14 0.32 0.22 33 1009.6
20260504174539 76 190 3.0 8.0 0.14 0.32 0.22 33 1009.8
20260504174339 76 331 2.0 14.0 0.14 0.32 0.22 34 1009.6
20260504173347 76 44 2.0 9.0 0.12 0.30 0.20 34 1009.8
20260504173039 75 74 2.0 9.0 0.12 0.30 0.20 33 1010.0
20260504172838 76 35 3.0 10.0 0.12 0.30 0.20 33 1010.0
20260504172351 76 130 4.0 10.0 0.12 0.30 0.20 32 1010.1
20260504171843 76 36 4.0 10.0 0.08 0.26 0.16 35 1010.1
20260504171516 74 124 5.0 8.0 0.08 0.26 0.16 34 1010.1
20260504171415 75 347 4.0 7.0 0.08 0.26 0.16 34 1010.1
20260504170848 74 317 3.0 10.0 0.08 0.26 0.16 33 1010.2
20260504170341 73 55 4.0 10.0 0.06 0.24 0.14 34 1010.3
20260504081509 40 309 0.0 0.0 0.00 0.36 0.00 85 1014.5